This is the latest recevied weather packets stored in our database for station/object NK7E. If no packets are shown the sender has not sent any weather packets the latest 10 day(s).
| Time | Temp. | Humidity | Pressure | Rain* | Wind** | Luminosity | Snow |
|---|---|---|---|---|---|---|---|
| 1777503916 | 27.22° C | 12% | 1012.7 hPa | 0 mm | - | 245 W/m² | - |
| 1777503316 | 27.78° C | 12% | 1012.8 hPa | 0 mm | - | 244 W/m² | - |
| 1777502716 | 27.22° C | 13% | 1012.9 hPa | 0 mm | - | 316 W/m² | - |
| 1777502116 | 27.22° C | 12% | 1013.1 hPa | 0 mm | - | 294 W/m² | - |
| 1777501516 | 27.22° C | 12% | 1013.3 hPa | 0 mm | - | 378 W/m² | - |
| 1777500916 | 27.78° C | 12% | 1013.6 hPa | 0 mm | - | 359 W/m² | - |
| 1777500316 | 27.78° C | 12% | 1013.5 hPa | 0 mm | - | 352 W/m² | - |
| 1777499716 | 27.78° C | 12% | 1013.6 hPa | 0 mm | - | 365 W/m² | - |
| 1777499116 | 27.78° C | 12% | 1013.9 hPa | 0 mm | - | 370 W/m² | - |
| 1777498516 | 27.78° C | 12% | 1014 hPa | 0 mm | - | 432 W/m² | - |
| 1777497916 | 27.78° C | 12% | 1014.2 hPa | 0 mm | - | 419 W/m² | - |
| 1777497316 | 27.78° C | 11% | 1014.4 hPa | 0 mm | - | 472 W/m² | - |
| 1777496716 | 27.78° C | 10% | 1014.7 hPa | 0 mm | - | 515 W/m² | - |
| 1777496116 | 27.22° C | 9% | 1014.6 hPa | 0 mm | - | 530 W/m² | - |
| 1777495516 | 27.78° C | 9% | 1014.7 hPa | 0 mm | - | 544 W/m² | - |
| 1777494916 | 27.78° C | 10% | 1014.7 hPa | 0 mm | - | 587 W/m² | - |
| 1777494316 | 27.22° C | 11% | 1014.7 hPa | 0 mm | - | 778 W/m² | - |
| 1777493716 | 27.22° C | 11% | 1014.9 hPa | 0 mm | - | 857 W/m² | - |
| 1777493116 | 27.22° C | 12% | 1014.9 hPa | 0 mm | - | 712 W/m² | - |
| 1777492516 | 27.22° C | 12% | 1015.1 hPa | 0 mm | - | 672 W/m² | - |
| 1777491916 | 26.67° C | 13% | 1015.2 hPa | 0 mm | - | 891 W/m² | - |
| 1777491316 | 26.67° C | 11% | 1015.3 hPa | 0 mm | - | 940 W/m² | - |
| 1777490716 | 26.67° C | 13% | 1015.5 hPa | 0 mm | - | 938 W/m² | - |
| 1777490116 | 26.67° C | 15% | 1015.5 hPa | 0 mm | - | 979 W/m² | - |
| 1777489516 | 26.11° C | 16% | 1015.7 hPa | 0 mm | - | 986 W/m² | - |
* Rain latest hour (hover to see other rain measurements)
** Current wind speed in m/s (hover to see current wind gust speed)